Погода в Таоюане

Тайвань     24°59′37″N   121°18′03″E
темп.,
°C
ветер,
м/с
пор.,
м/с
влажн.,
%
обл.,
%
осадки,
мм/ч
давл.,
гПа
погр.,
м
28 ноября, вс
вс2823:00+19всв915846 0.0 1021971
02:00+19всв814795 0.0 1019776
05:00+19всв7128345 0.0 1019559
08:00+21всв61077100 0.0 1020540
11:00+24в79604 0.0 1019832
14:00+26в675598 0.0 1016844
17:00+23в687189 0.0 1017466
20:00+21в6107979 0.0 1018451
29 ноября, пн
пн2923:00+21в588295 0.0 1017393
02:00+21в368392 0.0 1016273
05:00+21в358397 0.0 1016246
08:00+21всв3586100 0.2 1018295
11:00+24всв566776 0.0 1016717
14:00+23всв6774100 0.0 1015615
17:00+22всв69797 0.0 1014572
20:00+21всв58835 0.0 1015402
30 ноября, вт
вт3023:00+20в238569 0.0 1016104
02:00+20ю2388100 0.6 101591
05:00+20ююз128994 0.0 101669
08:00+20с4692100 0.9 1018454
11:00+20с479099 1.7 1019602
14:00+20ссв71082100 3.3 1017975
17:00+18св61080100 0.9 10201173
20:00+16св71074100 1.3 10221271
1 декабря, ср
ср123:00+16всв61064100 0.1 10231536
02:00+14св711563 0.1 10241353
05:00+14всв6105616 0.0 10241489
08:00+15всв7115334 0.0 10251495
11:00+16св8105042 0.0 10251572
14:00+16всв8105189 0.0 10231553
17:00+15всв8126484 0.0 10231516
20:00+15всв8126493 0.1 10251471
2 декабря, чт
чт223:00+14всв7127012 0.0 10231208
02:00+14всв712726 0.1 1021981
05:00+15всв6107322 0.1 1022858
08:00+16всв596846 0.1 1022915
11:00+18всв785634 0.0 10211295
14:00+18св775991 0.0 10201372
17:00+17св686455 0.0 10201006
20:00+16всв586744 0.1 1022780